Weather History for Fitchburg, MA

Change the Weather History Date:

Thursday, August 29, 2013

  Actual Average (KORH) Record (KORH)
Temperature  
Mean Temperature 66 °F 67 °F  
Max Temperature 69 °F 75 °F 93 °F (1953)
Min Temperature 62 °F 58 °F 38 °F (1931)
Degree Days  
Heating Degree Days 0 2  
Month to date heating degree days 21  
Since 1 June heating degree days 118  
Since 1 July heating degree days 35  
Cooling Degree Days 2 3  
Month to date cooling degree days 139  
Year to date cooling degree days 420  
Since 1 June cooling degree days 398  
Growing Degree Days 16 (Base 50)    
Moisture  
Dew Point 63 °F    
Average Humidity 88    
Maximum Humidity 94    
Minimum Humidity 78    
Precipitation  
Precipitation 0.04 in 0.11 in 1.51 in (1961)
Month to date precipitation 3.50  
Year to date precipitation 31.15  
Snow  
Snow 0.00 in 0.00 in 0.00 in (2002)
Month to date snowfall 0.0  
Since 1 June snowfall 0.0  
Since 1 July snowfall 0.0  
Snow Depth -    
Sea Level Pressure  
Sea Level Pressure 30.04 in    
Wind  
Wind Speed 3 mph (NE)    
Max Wind Speed 9 mph    
Max Gust Speed 16 mph    
Visibility 8 miles    
Events Rain    
T = Trace of Precipitation, MM = Missing Value Source: NWS Daily Summary

Daily Weather History Graph

Daily Weather History Graph

Search for Another Location

Airport:

Trip Planner

Search our weather history database for the weather conditions in past years. The results will help you decide how hot, cold, wet, or windy it might be!

Date:

Astronomy

Aug. 29, 2013 Rise Set
Actual Time 6:09 AM EDT 7:25 PM EDT
Civil Twilight 5:39 AM EDT 7:55 PM EDT
Nautical Twilight 5:04 AM EDT 8:29 PM EDT
Astronomical Twilight 4:27 AM EDT 9:06 PM EDT
Moon No Moon Rise 2:56 PM EDT (8/29)
Length of Visible Light 14h 15m
Length of Day
13h 16m
Last Quarter, 38% of the Moon is Illuminated
Aug 29
Last Quarter
Sep 5
New
Sep 12
First Quarter
Sep 19
Full
Sep 26
Last Quarter

Hourly Weather History & Observations

Time (EDT) Temp. Dew Point Humidity Pressure Visibility Wind Dir Wind Speed Gust Speed Precip Events Conditions
12:14 AM 69.8 °F 64.4 °F 83% 30.00 in 10.0 mi NNE 4.6 mph - 0.01 in Rain Light Rain
12:52 AM 69.1 °F 64.0 °F 84% 29.99 in 10.0 mi Calm Calm - 0.01 in   Overcast
1:42 AM 68.0 °F 64.4 °F 88% 29.99 in 10.0 mi Calm Calm - N/A   Overcast
1:52 AM 68.0 °F 64.9 °F 90% 29.99 in 8.0 mi Calm Calm - N/A   Overcast
2:09 AM 68.0 °F 64.4 °F 88% 29.99 in 10.0 mi NNW 4.6 mph - 0.01 in Rain Light Rain
2:28 AM 66.2 °F 64.4 °F 94% 29.98 in 10.0 mi Calm Calm - 0.01 in Rain Light Rain
2:35 AM 68.0 °F 64.4 °F 88% 29.97 in 10.0 mi Calm Calm - 0.01 in Rain Light Rain
2:52 AM 68.0 °F 64.9 °F 90% 29.96 in 10.0 mi SSE 6.9 mph - 0.01 in Rain Light Rain
2:59 AM 68.0 °F 64.4 °F 88% 29.96 in 10.0 mi ESE 3.5 mph - 0.00 in Rain Light Rain
3:52 AM 66.0 °F 64.0 °F 93% 29.98 in 8.0 mi NNW 4.6 mph - 0.01 in   Mostly Cloudy
4:02 AM 66.2 °F 64.4 °F 94% 29.99 in 8.0 mi Calm Calm - N/A   Mostly Cloudy
4:22 AM 66.2 °F 64.4 °F 94% 30.00 in 10.0 mi North 4.6 mph - N/A   Overcast
4:34 AM 66.2 °F 64.4 °F 94% 30.00 in 10.0 mi Calm Calm - N/A   Overcast
4:44 AM 66.2 °F 64.4 °F 94% 30.01 in 10.0 mi NNE 5.8 mph - N/A   Overcast
4:52 AM 66.9 °F 64.0 °F 90% 30.01 in 10.0 mi Variable 5.8 mph - N/A   Overcast
5:48 AM 66.2 °F 64.4 °F 94% 30.02 in 10.0 mi Variable 3.5 mph - N/A   Overcast
5:52 AM 66.9 °F 64.0 °F 90% 30.02 in 10.0 mi ENE 3.5 mph - N/A   Overcast
6:52 AM 66.9 °F 64.0 °F 90% 30.04 in 4.0 mi Variable 3.5 mph - N/A   Overcast
7:05 AM 66.2 °F 64.4 °F 94% 30.05 in 2.5 mi ENE 5.8 mph - N/A   Overcast
7:12 AM 66.2 °F 64.4 °F 94% 30.05 in 3.0 mi NE 3.5 mph - N/A   Overcast
7:23 AM 66.2 °F 64.4 °F 94% 30.05 in 2.0 mi ENE 3.5 mph - 0.00 in Rain Light Rain
7:30 AM 66.2 °F 64.4 °F 94% 30.05 in 1.8 mi ENE 4.6 mph - 0.00 in Rain Light Rain
7:52 AM 66.9 °F 64.0 °F 90% 30.06 in 2.5 mi NE 4.6 mph - 0.01 in Rain Light Rain
8:03 AM 66.2 °F 64.4 °F 94% 30.07 in 1.5 mi NE 5.8 mph - 0.00 in Rain Light Rain
8:19 AM 66.2 °F 64.4 °F 94% 30.07 in 3.0 mi NE 9.2 mph - 0.00 in Rain Light Rain
8:52 AM 66.9 °F 64.0 °F 90% 30.07 in 6.0 mi Calm Calm - 0.00 in   Overcast
9:48 AM 68.0 °F 64.4 °F 88% 30.07 in 10.0 mi NNE 6.9 mph - N/A   Overcast
9:52 AM 68.0 °F 64.0 °F 87% 30.07 in 10.0 mi North 8.1 mph - N/A   Overcast
10:28 AM 68.0 °F 64.4 °F 88% 30.08 in 10.0 mi NNE 6.9 mph - N/A   Overcast
10:52 AM 68.0 °F 63.0 °F 84% 30.08 in 10.0 mi NE 6.9 mph 16.1 mph 0.00 in   Overcast
11:52 AM 64.9 °F 61.0 °F 87% 30.09 in 10.0 mi NNE 9.2 mph - N/A   Overcast
12:52 PM 66.0 °F 61.0 °F 84% 30.09 in 10.0 mi ENE 6.9 mph - N/A   Overcast
1:41 PM 64.4 °F 60.8 °F 88% 30.09 in 10.0 mi Variable 5.8 mph - N/A   Overcast
1:52 PM 64.9 °F 60.1 °F 84% 30.09 in 10.0 mi Variable 5.8 mph - N/A   Overcast
2:52 PM 64.9 °F 59.0 °F 81% 30.09 in 10.0 mi NE 3.5 mph - N/A   Overcast
3:52 PM 66.0 °F 59.0 °F 78% 30.09 in 10.0 mi NNE 5.8 mph - N/A   Overcast
4:52 PM 64.9 °F 59.0 °F 81% 30.09 in 10.0 mi East 5.8 mph - N/A   Overcast
5:52 PM 64.9 °F 59.0 °F 81% 30.09 in 10.0 mi ENE 4.6 mph - N/A   Overcast
6:52 PM 64.0 °F 59.0 °F 84% 30.07 in 10.0 mi East 3.5 mph - N/A   Overcast
7:52 PM 64.0 °F 59.0 °F 84% 30.09 in 10.0 mi Calm Calm - N/A   Overcast
8:03 PM 64.4 °F 59.0 °F 83% 30.08 in 10.0 mi East 3.5 mph - N/A   Overcast
8:52 PM 64.0 °F 59.0 °F 84% 30.09 in 10.0 mi Calm Calm - N/A   Overcast
9:52 PM 64.0 °F 57.9 °F 80% 30.09 in 10.0 mi ENE 3.5 mph - N/A   Overcast
10:52 PM 64.0 °F 57.9 °F 80% 30.07 in 10.0 mi Calm Calm - N/A   Overcast
11:52 PM 62.1 °F 57.9 °F 86% 30.05 in 10.0 mi Calm Calm - N/A   Overcast